GW4137 Weather Reports


time (UTC)temp
F
wind
direction
speed
knots
gust
knots
rain 1hr
in
rain 24hr
in
rain mn
in
humidity
%
barometer
mb
20260509044552 61 283 8.7 18.2 0.00 0.00 0.00 42 1010.4
20260509043053 62 287 7.0 13.0 0.00 0.00 0.00 40 1010.5
20260509041550 63 288 1.7 11.3 0.00 0.00 0.00 35 1010.7
20260509040106 64 330 3.5 10.4 0.00 0.00 0.00 28 1010.7
20260509034550 63 320 0.9 5.2 0.00 0.00 0.00 28 1010.3
20260509033109 61 5 0.0 3.5 0.00 0.00 0.00 28 1009.9
20260509031550 62 5 0.0 0.0 0.00 0.00 0.00 27 1009.6
20260509030053 64 0 0.0 0.0 0.00 0.00 0.00 26 1009.3
20260509024603 64 0 0.0 0.9 0.00 0.00 0.00 25 1009.0
20260509023056 65 5 1.7 5.2 0.00 0.00 0.00 25 1008.6
20260509021553 67 5 3.5 8.7 0.00 0.00 0.00 23 1008.4
20260509020105 68 360 9.6 13.9 0.00 0.00 0.00 22 1008.1
20260509014554 69 352 10.4 15.6 0.00 0.00 0.00 21 1008.0
20260509013052 70 344 9.6 15.6 0.00 0.00 0.00 20 1008.1
20260509011601 70 352 10.4 15.6 0.00 0.00 0.00 20 1008.1
20260509010059 70 333 13.0 16.5 0.00 0.00 0.00 20 1008.0
20260509004553 71 340 13.0 18.2 0.00 0.00 0.00 19 1008.1
20260509003056 71 340 12.2 20.0 0.00 0.00 0.00 20 1008.1
20260509001550 72 330 13.9 20.9 0.00 0.00 0.00 18 1008.0
20260509000052 72 342 15.6 22.6 0.00 0.00 0.00 18 1008.0
20260508234604 72 304 11.3 23.5 0.00 0.00 0.00 18 1008.0
20260508233105 72 319 17.4 26.9 0.00 0.00 0.00 17 1008.0
20260508231550 73 327 19.1 26.9 0.00 0.00 0.00 18 1008.0
20260508230057 73 319 13.0 21.7 0.00 0.00 0.00 18 1007.8
20260508224556 74 331 15.6 25.2 0.00 0.00 0.00 18 1008.0
20260508223055 74 346 17.4 25.2 0.00 0.00 0.00 19 1008.0
20260508221600 73 323 14.8 26.1 0.00 0.00 0.00 20 1007.9
20260508220055 74 326 13.9 22.6 0.00 0.00 0.00 19 1007.9
20260508214549 74 315 13.9 23.5 0.00 0.00 0.00 18 1008.1
20260508213054 74 292 11.3 26.1 0.00 0.00 0.00 18 1008.1
20260508211550 75 344 9.6 25.2 0.00 0.00 0.00 20 1008.1
20260508210056 74 292 17.4 26.1 0.00 0.00 0.00 19 1008.1
20260508204554 74 302 12.2 26.1 0.00 0.00 0.00 18 1008.1
20260508203052 74 304 12.2 23.5 0.00 0.00 0.00 18 1008.4
20260508201554 74 296 12.2 26.1 0.00 0.00 0.00 20 1008.2
20260508200053 73 248 12.2 23.5 0.00 0.00 0.00 21 1008.3
20260508194605 74 298 13.0 20.9 0.00 0.00 0.00 22 1008.5
20260508193108 73 331 12.2 20.9 0.00 0.00 0.00 21 1008.7
20260508191601 73 288 8.7 18.2 0.00 0.00 0.00 22 1008.7
20260508190108 72 284 12.2 18.2 0.00 0.00 0.00 23 1009.1
20260508184552 72 282 11.3 22.6 0.00 0.00 0.00 23 1009.3
20260508183057 71 246 7.8 14.8 0.00 0.00 0.00 24 1009.7
20260508181602 71 259 7.8 13.9 0.00 0.00 0.00 27 1010.0
20260508180057 69 244 6.1 13.0 0.00 0.00 0.00 32 1010.0
20260508174555 68 262 6.1 12.2 0.00 0.00 0.00 34 1010.3
20260508173055 68 264 7.8 12.2 0.00 0.00 0.00 35 1010.3
20260508171556 67 282 7.8 11.3 0.00 0.00 0.00 36 1010.5
20260508170059 66 287 3.5 11.3 0.00 0.00 0.00 41 1010.7
20260508164604 64 241 6.1 12.2 0.00 0.00 0.00 47 1010.8
20260508163109 63 270 5.2 10.4 0.00 0.00 0.00 49 1011.0
20260508161558 62 250 6.1 11.3 0.00 0.00 0.00 50 1011.2
20260508160055 61 259 6.1 9.6 0.00 0.00 0.00 52 1011.4
20260508154558 59 264 5.2 10.4 0.00 0.00 0.00 55 1011.5
20260508153106 58 254 5.2 7.8 0.00 0.00 0.00 57 1011.8
20260508151556 57 250 2.6 6.1 0.00 0.00 0.00 61 1011.8
20260508150053 54 0 0.9 5.2 0.00 0.00 0.00 65 1011.8
20260508144551 53 209 1.7 5.2 0.00 0.00 0.00 68 1011.8
20260508143111 51 224 2.6 5.2 0.00 0.00 0.00 71 1012.0
20260508141558 50 225 3.5 7.0 0.00 0.00 0.00 72 1012.1
20260508140107 49 220 2.6 4.3 0.00 0.00 0.00 75 1012.1
20260508134553 47 220 1.7 7.0 0.00 0.00 0.00 78 1012.2
20260508133057 44 0 0.0 2.6 0.00 0.00 0.00 80 1012.1
20260508131552 43 0 0.0 2.6 0.00 0.00 0.00 83 1012.1
20260508130052 42 0 0.0 3.5 0.00 0.00 0.00 83 1012.1
20260508124552 41 238 2.6 6.1 0.00 0.00 0.00 84 1012.1
20260508123052 40 0 0.0 0.0 0.00 0.00 0.00 82 1011.9
20260508121550 39 0 0.0 0.0 0.00 0.00 0.00 84 1011.8
20260508120100 39 0 0.0 0.0 0.00 0.00 0.00 84 1011.9
20260508114601 38 0 0.0 0.0 0.00 0.00 0.00 81 1012.0
20260508113101 39 0 0.0 0.0 0.00 0.00 0.00 80 1012.1
20260508111553 40 0 0.0 0.0 0.00 0.00 0.00 80 1012.1
20260508110104 41 0 0.0 0.0 0.00 0.00 0.00 78 1012.1
20260508104552 42 0 0.0 0.0 0.00 0.00 0.00 77 1012.1
20260508103057 44 0 0.0 3.5 0.00 0.00 0.00 77 1012.0
20260508101556 45 345 3.5 10.4 0.00 0.00 0.00 75 1012.1
20260508100126 45 360 7.0 10.4 0.00 0.00 0.00 76 1012.1
20260508094557 46 329 3.5 8.7 0.00 0.00 0.00 73 1012.2
20260508093057 47 325 4.3 8.7 0.00 0.00 0.00 73 1012.0
20260508091608 47 316 3.5 7.8 0.00 0.00 0.00 72 1012.1
20260508090054 48 308 3.5 8.7 0.00 0.00 0.00 70 1012.1
20260508084552 48 313 6.1 10.4 0.00 0.00 0.00 70 1012.2
20260508083055 49 300 5.2 12.2 0.00 0.00 0.00 69 1012.0
20260508081610 49 306 5.2 10.4 0.00 0.00 0.00 68 1012.0
20260508080055 49 309 5.2 12.2 0.00 0.00 0.00 67 1012.0
20260508074554 50 307 4.3 10.4 0.00 0.00 0.00 65 1012.1
20260508073053 50 313 5.2 10.4 0.00 0.00 0.00 62 1012.1
20260508071554 51 309 5.2 10.4 0.00 0.00 0.00 60 1012.1
20260508070054 52 314 6.1 10.4 0.00 0.00 0.00 57 1012.1
20260508064555 53 325 6.1 12.2 0.00 0.00 0.00 55 1011.9
20260508063057 53 328 7.8 12.2 0.00 0.00 0.00 54 1012.0
20260508061549 51 316 3.5 8.7 0.00 0.00 0.00 57 1012.0
20260508054636 51 294 4.3 8.7 0.00 0.00 0.00 60 1011.9
20260508053056 51 286 3.5 7.0 0.00 0.00 0.00 59 1011.6
20260508051554 52 285 5.2 7.8 0.00 0.00 0.00 58 1011.6
20260508050051 53 288 4.3 7.8 0.00 0.00 0.00 56 1011.8